Dillon, CO

4:18 PM MST on February 23, 2017 (GMT -0700)
Copper Mountain

Weather History for KCCU - April, 2014

Change the Weather History Date:

Tuesday, April 15, 2014

  Actual Average Record
Temperature  
Mean Temperature 24 °F -  
Max Temperature 33 °F - 42 °F (2007)
Min Temperature 14 °F - 8 °F (2011)
Degree Days  
Heating Degree Days 42    
Month to date heating degree days  
Moisture  
Dew Point 8 °F    
Average Humidity 48    
Maximum Humidity 74    
Minimum Humidity 25    
Precipitation  
Precipitation 0.00 in - 0.28 in (2003)
Sea Level Pressure  
Sea Level Pressure 30.09 in    
Wind  
Wind Speed 19 mph (WSW)    
Max Wind Speed 38 mph    
Max Gust Speed 55 mph    
Visibility 7 miles    
Events Snow    
T = Trace of Precipitation, MM = Missing Value Source: NWS Daily Summary

Daily Weather History Graph

Daily Weather History Graph

Search for Another Location

Airport or City:

Trip Planner

Search our weather history database for the weather conditions in past years. The results will help you decide how hot, cold, wet, or windy it might be!

Date:

Astronomy

Apr. 15, 2014 Rise Set
Actual Time 6:27 AM MDT 7:42 PM MDT
Civil Twilight 5:59 AM MDT 8:10 PM MDT
Nautical Twilight 5:26 AM MDT 8:43 PM MDT
Astronomical Twilight 4:51 AM MDT 9:18 PM MDT
Moon 8:26 PM MDT (4/15) 6:37 AM MDT (4/15)
Length of Visible Light 14h 10m
Length of Day
13h 15m
Full, 100% of the Moon is Illuminated
Apr 15
Full
Apr 22
Last Quarter
Apr 29
New
May 6
First Quarter
May 14
Full

Hourly Weather History & Observations

Time (MDT) Temp. Windchill Dew Point Humidity Pressure Visibility Wind Dir Wind Speed Gust Speed Precip Events Conditions
12:16 AM 14.0 °F -2.5 °F -0.4 °F 53% 30.21 in 10.0 mi West 17.3 mph 20.7 mph N/A   Clear
12:36 AM 14.0 °F 5.1 °F -0.4 °F 53% 30.21 in 10.0 mi West 5.8 mph 20.7 mph N/A   Clear
12:56 AM 15.8 °F 0.3 °F 1.4 °F 53% 30.20 in 10.0 mi WSW 16.1 mph 25.3 mph N/A   Clear
1:16 AM 15.8 °F -3.4 °F 1.4 °F 53% 30.19 in 10.0 mi West 26.5 mph 31.1 mph N/A   Clear
1:36 AM 17.6 °F 1.3 °F 3.2 °F 53% 30.19 in 10.0 mi West 19.6 mph 32.2 mph N/A   Clear
1:56 AM 17.6 °F 1.7 °F 3.2 °F 53% 30.19 in 10.0 mi West 18.4 mph 23.0 mph N/A   Clear
2:16 AM 17.6 °F 2.2 °F 3.2 °F 53% 30.19 in 10.0 mi West 17.3 mph 28.8 mph N/A   Clear
2:36 AM 17.6 °F -0.3 °F 5.0 °F 58% 30.17 in 7.0 mi West 24.2 mph 34.5 mph N/A   Clear
2:56 AM 17.6 °F 0.5 °F 5.0 °F 58% 30.18 in 10.0 mi West 21.9 mph 28.8 mph N/A   Clear
3:16 AM 17.6 °F 0.1 °F 5.0 °F 58% 30.18 in 10.0 mi West 23.0 mph 31.1 mph N/A   Clear
3:36 AM 17.6 °F -0.3 °F 6.8 °F 63% 30.18 in 10.0 mi West 24.2 mph 31.1 mph N/A   Clear
3:56 AM 17.6 °F 0.9 °F 8.6 °F 68% 30.18 in 10.0 mi West 20.7 mph 26.5 mph N/A   Clear
4:16 AM 17.6 °F -1.0 °F 10.4 °F 73% 30.17 in 10.0 mi West 26.5 mph 29.9 mph N/A   Clear
4:36 AM 19.4 °F 2.8 °F 10.4 °F 68% 30.17 in 10.0 mi West 21.9 mph 31.1 mph N/A   Scattered Clouds
4:56 AM 19.4 °F 2.1 °F 12.2 °F 74% 30.16 in 10.0 mi West 24.2 mph 31.1 mph N/A   Clear
5:16 AM 19.4 °F 2.5 °F 12.2 °F 74% 30.16 in 10.0 mi West 23.0 mph 28.8 mph N/A   Clear
5:36 AM 19.4 °F 10.4 °F 10.4 °F 68% 30.15 in 10.0 mi WSW 6.9 mph 19.6 mph N/A   Clear
5:56 AM 19.4 °F 6.6 °F 8.6 °F 63% 30.15 in 10.0 mi West 12.7 mph 24.2 mph N/A   Clear
6:16 AM 17.6 °F 5.7 °F 8.6 °F 68% 30.16 in 10.0 mi WSW 10.4 mph 18.4 mph N/A   Clear
6:36 AM 17.6 °F 5.7 °F 6.8 °F 63% 30.15 in 10.0 mi WSW 10.4 mph 20.7 mph N/A   Clear
6:56 AM 17.6 °F 5.0 °F 5.0 °F 58% 30.15 in 10.0 mi WSW 11.5 mph 18.4 mph N/A   Clear
7:16 AM 19.4 °F 4.1 °F 6.8 °F 58% 30.15 in 10.0 mi West 18.4 mph 25.3 mph N/A   Clear
7:36 AM 19.4 °F 4.1 °F 6.8 °F 58% 30.15 in 10.0 mi West 18.4 mph 24.2 mph N/A   Clear
7:56 AM 19.4 °F 6.6 °F 6.8 °F 58% 30.15 in 10.0 mi WSW 12.7 mph 25.3 mph N/A   Clear
8:16 AM 19.4 °F 8.6 °F 6.8 °F 58% 30.15 in 10.0 mi WSW 9.2 mph 18.4 mph N/A   Clear
8:36 AM 23.0 °F 11.1 °F 8.6 °F 54% 30.15 in 10.0 mi West 12.7 mph 17.3 mph N/A   Clear
8:56 AM 23.0 °F 13.9 °F 8.6 °F 54% 30.15 in 10.0 mi SW 8.1 mph 16.1 mph N/A   Clear
9:16 AM 24.8 °F 15.3 °F 8.6 °F 50% 30.14 in 10.0 mi SW 9.2 mph 17.3 mph N/A   Clear
9:36 AM 26.6 °F 20.0 °F 10.4 °F 51% 30.14 in 10.0 mi SW 5.8 mph - N/A   Clear
9:56 AM 28.4 °F 19.1 °F 12.2 °F 51% 30.14 in 10.0 mi SW 10.4 mph - N/A   Clear
10:16 AM 28.4 °F 22.2 °F 12.2 °F 51% 30.14 in 10.0 mi WSW 5.8 mph - N/A   Clear
10:56 AM 32.0 °F 22.1 °F 12.2 °F 44% 30.13 in 10.0 mi West 13.8 mph 23.0 mph N/A   Clear
11:16 AM 33.8 °F 24.8 °F 14.0 °F 44% 30.12 in 10.0 mi WSW 12.7 mph 21.9 mph N/A   Clear
11:56 AM 33.8 °F 21.6 °F 10.4 °F 38% 30.12 in 10.0 mi West 23.0 mph 31.1 mph N/A   Clear
12:16 PM 33.8 °F 21.0 °F 10.4 °F 38% 30.10 in 10.0 mi West 25.3 mph 35.7 mph N/A   Clear
12:36 PM 33.8 °F 20.1 °F 12.2 °F 41% 30.09 in 5.0 mi West 29.9 mph 36.8 mph N/A   Haze
12:56 PM 33.8 °F 21.6 °F 12.2 °F 41% 30.10 in 5.0 mi WNW 23.0 mph 33.4 mph N/A   Haze
1:16 PM 33.8 °F 22.5 °F 12.2 °F 41% 30.09 in 2.5 mi West 19.6 mph 40.3 mph N/A   Haze
1:36 PM 33.8 °F 24.8 °F 12.2 °F 41% 30.10 in 7.0 mi West 12.7 mph 23.0 mph N/A   Mostly Cloudy
1:56 PM 33.8 °F 19.6 °F 10.4 °F 38% 30.07 in 10.0 mi West 32.2 mph 35.7 mph N/A   Scattered Clouds
2:16 PM 33.8 °F 22.5 °F 12.2 °F 41% 30.08 in 5.0 mi West 19.6 mph 35.7 mph N/A   Haze
2:36 PM 33.8 °F 22.2 °F 8.6 °F 35% 30.07 in 10.0 mi West 20.7 mph 33.4 mph N/A   Mostly Cloudy
2:56 PM 33.8 °F 22.2 °F 6.8 °F 32% 30.06 in 10.0 mi West 20.7 mph 33.4 mph N/A   Scattered Clouds
3:16 PM 33.8 °F 19.0 °F 3.2 °F 28% 30.04 in 2.5 mi West 35.7 mph 40.3 mph N/A   Haze
3:36 PM 33.8 °F 19.9 °F 1.4 °F 25% 30.04 in 1.5 mi West 31.1 mph 41.4 mph N/A Snow Light Snow
3:56 PM 33.8 °F 21.6 °F 3.2 °F 28% 30.05 in 7.0 mi West 23.0 mph 34.5 mph N/A   Clear
4:16 PM 32.0 °F 18.9 °F 8.6 °F 38% 30.03 in 2.0 mi WSW 24.2 mph 34.5 mph N/A   Haze
4:36 PM 33.8 °F 21.3 °F 6.8 °F 32% 30.02 in 10.0 mi West 24.2 mph 32.2 mph N/A   Clear
4:56 PM 33.8 °F 20.8 °F 6.8 °F 32% 30.01 in 5.0 mi WSW 26.5 mph 38.0 mph N/A   Haze
5:16 PM 33.8 °F 22.5 °F 6.8 °F 32% 30.01 in 3.0 mi West 19.6 mph 41.4 mph N/A Snow Light Snow
5:36 PM 33.8 °F 21.6 °F 10.4 °F 38% 30.00 in 1.5 mi WSW 23.0 mph 41.4 mph N/A Snow Light Snow
5:56 PM 33.8 °F 21.9 °F 10.4 °F 38% 30.00 in 1.5 mi WSW 21.9 mph 38.0 mph N/A   Haze
6:16 PM 33.8 °F 21.9 °F 10.4 °F 38% 29.99 in 2.0 mi WSW 21.9 mph 39.1 mph N/A Snow Light Snow
6:36 PM 32.0 °F 19.2 °F 8.6 °F 38% 29.99 in 5.0 mi WSW 23.0 mph 38.0 mph N/A   Haze
6:56 PM 30.2 °F 15.7 °F 8.6 °F 40% 29.98 in 4.0 mi WSW 27.6 mph 36.8 mph N/A   Haze
7:16 PM 30.2 °F 15.2 °F 8.6 °F 40% 29.98 in 3.0 mi WSW 29.9 mph 38.0 mph N/A Snow Light Snow
7:36 PM 30.2 °F 16.5 °F 8.6 °F 40% 29.99 in 3.0 mi WSW 24.2 mph 36.8 mph N/A   Haze
7:56 PM 30.2 °F 16.2 °F 10.4 °F 44% 29.98 in 2.0 mi WSW 25.3 mph 36.8 mph N/A Snow Light Snow
8:16 PM 30.2 °F 15.7 °F 10.4 °F 44% 29.98 in 1.0 mi WSW 27.6 mph 41.4 mph N/A Snow Light Snow
8:36 PM 30.2 °F 15.7 °F 10.4 °F 44% 29.98 in 1.5 mi WSW 27.6 mph 36.8 mph N/A Snow Light Snow
8:56 PM 30.2 °F 16.5 °F 12.2 °F 47% 29.99 in 1.8 mi WSW 24.2 mph 31.1 mph N/A Snow Light Snow
9:08 PM 30.2 °F 17.1 °F 10.4 °F 44% 30.00 in 1.5 mi WSW 21.9 mph 33.4 mph N/A Snow Light Snow
10:16 PM 30.2 °F 14.9 °F 10.4 °F 44% 29.98 in 0.5 mi WSW 31.1 mph 40.3 mph N/A Snow Light Snow
10:36 PM 30.2 °F 14.7 °F 10.4 °F 44% 29.96 in 0.5 mi WSW 32.2 mph 50.6 mph N/A Snow Light Snow
10:56 PM 30.2 °F 15.4 °F 10.4 °F 44% 29.95 in 0.5 mi WSW 28.8 mph 43.7 mph N/A Snow Light Snow
11:16 PM 30.2 °F 13.7 °F 10.4 °F 44% 29.94 in 0.2 mi WSW 38.0 mph 44.9 mph N/A Snow Light Snow
11:36 PM 30.2 °F 13.9 °F 10.4 °F 44% 29.93 in 0.2 mi WSW 36.8 mph 55.2 mph N/A Snow Snow
11:56 PM 30.2 °F 14.3 °F 10.4 °F 44% 29.93 in 0.2 mi WSW 34.5 mph 52.9 mph N/A Snow Light Snow